Location: ??????
(41.3747°N, 22.5491°E)
Time: 05:29:06
(UTC+00:00)

CZ-4 R/B - Pass Details

Date: 01 December 2020
Orbit: 532 x 597 km, 97.7° (Epoch: 20 January)

Event Time Altitude Azimuth Distance (km) Brightness Sun altitude
Rises 17:32:56 0° 184° (S) 2,703 5.0 -27.9°
Reaches altitude 10° 17:35:08 10° 192° (SSW) 1,825 4.1 -28.3°
Enters shadow 17:35:12 10° 192° (SSW) 1,798 4.1 -28.3°
Exits shadow 17:41:11 20° 321° (NW) 1,330 3.5 -29.4°
Drops below altitude 10° 17:42:40 10° 332° (NNW) 1,876 4.3 -29.7°
Sets 17:44:58 0° 340° (NNW) 2,790 5.1 -30.1°
